www.pogodaiklimat.ru

Погода и климат >> Архив погоды >> Антарктида >> Rothera


ПОГОДА в Rothera

  • Прогноз погоды в Rothera
  • Монитор погоды в Rothera
  • Климат города

АРХИВ ПОГОДЫ в Rothera

Время (UTC), дата Ветер
(напр.,м/с)
 
Видим.   Явления Облачность Т
(С)
Тd
(С)
f
(%)
Тe
(С)
Тes
(С)
Комфортность P
(гПа)
Po
(гПа)
Тmin
(С)
Tmax
(С)
R
(мм)
R24
(мм)
S
(см)
16 12.09 С 9 н/о н/о -16.6 -20.4 72 -29 -29 971.2 966.8
17 12.09 С 11 н/о н/о -16.4 -20.3 72 -29 -29 969.4 965.0
18 12.09 С 9 2000 м слабый снег {метель} 10/5 300 м
[St Ac trans]
-16.0 -21.3 64 -28 -28 968.3 963.9
19 12.09 СЗ 9 н/о н/о -16.5 -20.7 70 -28 -28 967.3 962.9
20 12.09 СЗ 9 н/о н/о -17.1 -22.6 62 -29 -29 966.0 961.6
21 12.09 СЗ 10 15 км слабый снег 9/5 300 м
[St Ac trans]
-17.9 -24.2 58 -31 -31 опасность
обморожения
965.2 960.8
22 12.09 Ю 10 н/о н/о -19.0 -22.9 71 -32 -32 опасность
обморожения
965.2 960.7
23 12.09 Ю 8 н/о н/о -19.9 -23.3 74 -32 -32 опасность
обморожения
964.5 960.0
00 13.09 СВ 2 7000 м слабый снег 10/10 150 м
[St]
-20.6 -26.4 60 -27 -27 964.5 960.0 -20.8 -15.8
01 13.09 С 3 н/о н/о -20.7 -25.1 68 -28 -28 963.9 959.4
02 13.09 С 6 н/о н/о -21.4 -25.0 73 -32 -32 опасность
обморожения
963.8 959.3
03 13.09 С 8 н/о н/о -22.0 -26.0 70 -35 -35 опасность
обморожения
963.0 958.5
04 13.09 С 7 н/о н/о -22.2 -25.9 72 -35 -35 опасность
обморожения
963.0 958.5
05 13.09 С 4 н/о н/о -21.9 -26.3 67 -31 -31 опасность
обморожения
963.0 958.5
06 13.09 СВ 7 н/о н/о -22.2 -25.7 73 -35 -35 опасность
обморожения
962.8 958.3
07 13.09 СВ 7 н/о н/о -22.5 -25.7 75 -35 -35 опасность
обморожения
962.7 958.2
08 13.09 СВ 4 н/о н/о -22.4 -27.0 66 -31 -31 опасность
обморожения
962.5 958.0
09 13.09 В 7 н/о н/о -22.3 -26.3 70 -35 -35 опасность
обморожения
961.8 957.3
10 13.09 В 8 н/о н/о -22.4 -26.0 72 -36 -36 опасность
обморожения
961.5 957.0
11 13.09 В 9 н/о н/о -22.6 -26.1 73 -36 -36 опасность
обморожения
961.4 956.9
12 13.09 ЮВ 9 5000 м {снег} 9/6 1200 м
[Sc Ac trans]
-22.8 -26.7 70 -37 -37 опасность
обморожения
961.0 956.5 -22.9 -20.3
13 13.09 В 7 н/о н/о -22.7 -26.5 71 -35 -35 опасность
обморожения
961.1 956.6
14 13.09 В 5 н/о н/о -22.7 -26.8 69 -34 -34 опасность
обморожения
961.0 956.5
15 13.09 ЮВ 6 3000 м 10/8 900 м
[Sc As trans]
-22.5 -26.3 71 -34 -34 опасность
обморожения
961.1 956.6
16 13.09 ЮВ 8 н/о н/о -22.4 -26.0 72 -36 -36 опасность
обморожения
961.2 956.7
17 13.09 ЮВ 7 н/о н/о -22.6 -26.5 70 -35 -35 опасность
обморожения
961.3 956.8
18 13.09 ЮВ 5 15 км 5/5 600 м
[Sc]
-22.5 -26.8 68 -33 -33 опасность
обморожения
961.5 957.0
19 13.09 ЮВ 5 н/о н/о -22.6 -27.1 67 -33 -33 опасность
обморожения
961.8 957.3
20 13.09 Ю 5 н/о н/о -22.7 -27.1 67 -33 -33 опасность
обморожения
962.1 957.6
21 13.09 Ю 4 20 км 4/4 600 м
[Sc]
-22.8 -28.1 62 -33 -32 опасность
обморожения
962.7 958.2
22 13.09 Ю 5 н/о н/о -22.9 -28.2 62 -33 -33 опасность
обморожения
963.4 958.9
23 13.09 Ю 6 н/о н/о -22.6 -27.3 65 -34 -34 опасность
обморожения
963.9 959.4
00 14.09 Ю 4 20 км 10/10 750 м
[Sc]
-22.7 -27.8 63 -32 -32 опасность
обморожения
964.4 959.9 -23.1 -22.3
01 14.09 Ю 5 н/о н/о -22.8 -27.4 66 -33 -33 опасность
обморожения
964.7 960.2
02 14.09 Ю 6 н/о н/о -22.9 -27.0 69 -35 -35 опасность
обморожения
965.2 960.7
03 14.09 Ю 7 н/о н/о -23.4 -27.7 68 -36 -36 опасность
обморожения
965.7 961.2
04 14.09 Ю 6 н/о н/о -23.6 -27.9 68 -36 -36 опасность
обморожения
966.0 961.5
05 14.09 Ю 6 н/о н/о -23.7 -28.1 67 -35 -35 опасность
обморожения
966.2 961.7
06 14.09 Ю 5 н/о н/о -23.8 -28.6 65 -34 -34 опасность
обморожения
966.4 961.9
07 14.09 Ю 4 н/о н/о -23.9 -28.7 64 -34 -34 опасность
обморожения
966.6 962.1
08 14.09 Ю 5 н/о н/о -24.2 -29.3 63 -35 -35 опасность
обморожения
967.1 962.6
09 14.09 Ю 5 н/о н/о -24.7 -29.2 66 -36 -36 опасность
обморожения
967.8 963.2
10 14.09 Ю 5 н/о н/о -25.1 -29.7 65 -37 -37 опасность
обморожения
968.7 964.1
11 14.09 Ю 5 н/о н/о -25.0 -29.2 68 -36 -36 опасность
обморожения
969.1 964.5
12 14.09 Ю 4 >70 км 1/1 600 м
[Sc]
-24.5 -29.9 61 -35 -34 опасность
обморожения
969.9 965.3 -25.1 -22.7
13 14.09 ЮЗ 4 н/о н/о -23.6 -30.1 55 -34 -34 опасность
обморожения
970.2 965.7
14 14.09 Ю 5 н/о н/о -24.2 -28.8 66 -35 -35 опасность
обморожения
970.8 966.3
15 14.09 Ю 4 >70 км 1/1 630 м
[Sc]
-23.9 -28.0 69 -34 -32 опасность
обморожения
971.3 966.8
16 14.09 ЮЗ 4 н/о н/о -23.9 -27.1 75 -34 -34 опасность
обморожения
971.9 967.4
17 14.09 Ю 5 н/о н/о -23.8 -27.1 74 -34 -34 опасность
обморожения
972.1 967.6
18 14.09 Ю 4 >70 км 1/1 660 м
[Sc]
-24.2 -28.0 71 -34 -33 опасность
обморожения
972.7 968.2
19 14.09 Ю 5 н/о н/о -24.1 -28.3 68 -35 -35 опасность
обморожения
973.2 968.7
20 14.09 Ю 4 н/о н/о -24.1 -30.4 56 -34 -34 опасность
обморожения
973.6 969.1
21 14.09 Ю 4 >70 км 1/1 1200 м
[Sc]
-24.1 -29.4 61 -33 -33 опасность
обморожения
973.8 969.3
22 14.09 ЮВ 3 н/о н/о -24.2 -28.7 66 -32 -32 опасность
обморожения
973.9 969.4
23 14.09 В 2 н/о н/о -24.4 -28.0 72 -31 -31 опасность
обморожения
973.8 969.2
00 15.09 СВ 1 >70 км 1/1 360 м
[Sc]
-24.1 -27.8 71 -25 -25 973.5 969.0 -24.5 -23.3
01 15.09 СЗ 2 н/о н/о -25.0 -28.4 73 -32 -32 опасность
обморожения
973.0 968.4
02 15.09 С 1 н/о н/о -24.2 -27.5 74 -28 -28 972.3 967.8
03 15.09 С 1 н/о н/о -24.3 -27.4 75 -25 -25 971.5 967.0
04 15.09 С 2 н/о н/о -24.5 -27.5 76 -30 -30 970.9 966.3
05 15.09 С 2 н/о н/о -24.6 -28.7 69 -31 -31 опасность
обморожения
970.1 965.5
06 15.09 С 3 н/о н/о -24.6 -27.9 74 -33 -33 опасность
обморожения
969.5 964.9
07 15.09 С 4 н/о н/о -24.2 -27.1 77 -34 -34 опасность
обморожения
968.3 963.8
08 15.09 С 3 н/о н/о -24.0 -26.8 78 -33 -33 опасность
обморожения
967.2 962.7
09 15.09 С 3 н/о н/о -23.6 -26.5 77 -32 -32 опасность
обморожения
966.0 961.5
10 15.09 С 2 н/о н/о -24.0 -26.9 77 -31 -31 опасность
обморожения
965.1 960.6
11 15.09 С 2 н/о н/о -23.1 -27.4 68 -30 -30 964.4 959.9
12 15.09 С 1 70 км 3/0
[Ci fib]
-22.1 -26.3 69 -23 -22 963.5 959.0 -25.0 -22.1
13 15.09 ЮВ 2 н/о н/о -22.5 -26.2 72 -28 -28 962.6 958.1
14 15.09 ЮЗ 2 н/о н/о -22.0 -25.9 71 -27 -27 961.7 957.2
15 15.09 Ю 2 70 км 8/0
[Cs]
-21.6 -25.6 70 -28 -26 961.0 956.5
16 15.09 З 4 н/о н/о -21.1 -26.6 61 -30 -30 960.3 955.8
17 15.09 З 3 н/о н/о -20.2 -27.7 51 -28 -28 959.2 954.7
18 15.09 З 4 70 км 4/1 1200 м
[Sc Cs]
-18.1 -23.8 61 -26 -25 958.2 953.8
19 15.09 ЮЗ 2 н/о н/о -16.6 -22.1 62 -21 -21 958.1 953.7
20 15.09 ЮВ 5 н/о н/о -16.9 -21.2 69 -26 -26 958.1 953.7
21 15.09 ЮВ 10 70 км метель 5/1 1200 м
[Sc Ci fib]
-15.9 -20.3 69 -28 -28 957.6 953.2
22 15.09 В 14 н/о н/о -15.5 -19.6 71 -30 -30 957.3 952.9
23 15.09 В 15 н/о н/о -15.6 -20.3 67 -30 -30 957.2 952.8
00 16.09 В 12 70 км 8/0
[Ci fib]
-15.6 -20.6 65 -29 -29 957.8 953.4 -22.7 -15.5
01 16.09 В 10 н/о н/о -15.9 -20.8 66 -28 -28 958.4 954.0
02 16.09 В 13 н/о н/о -16.1 -21.3 64 -30 -30 958.5 954.1
03 16.09 В 13 н/о н/о -16.1 -21.5 63 -30 -30 959.1 954.7
04 16.09 В 12 н/о н/о -16.1 -22.0 60 -30 -30 959.6 955.2
05 16.09 В 10 н/о н/о -16.2 -22.6 58 -28 -28 960.8 956.4
06 16.09 В 10 н/о н/о -16.3 -22.9 57 -29 -29 961.7 957.3
07 16.09 В 9 н/о н/о -16.0 -23.1 54 -28 -28 962.5 958.1
08 16.09 В 6 н/о н/о -15.7 -23.2 53 -26 -26 963.7 959.3
09 16.09 В 2 н/о н/о -16.1 -22.6 57 -21 -21 964.9 960.5
10 16.09 ЮЗ 3 н/о н/о -16.8 -21.6 66 -24 -24 966.1 961.7
11 16.09 Ю 3 н/о н/о -18.3 -21.8 74 -25 -25 967.1 962.7
12 16.09 Ю 7 70 км 5/0
[Cs]
-17.9 -20.9 77 -29 -29 968.0 963.6 -18.5 -15.6
13 16.09 Ю 6 н/о н/о -18.1 -20.9 79 -28 -28 969.0 964.6
14 16.09 ЮВ 4 н/о н/о -18.2 -21.4 76 -26 -26 969.5 965.1
15 16.09 В 4 >70 км 5/1 300 м
[Sc Cs]
-18.5 -21.5 77 -27 -26 970.1 965.7
16 16.09 В 7 н/о н/о -18.9 -21.7 78 -30 -30 971.0 966.5
17 16.09 ЮВ 10 н/о н/о -19.6 -22.4 78 -33 -33 опасность
обморожения
972.1 967.6
18 16.09 ЮВ 9 >70 км 9/3 540 м
[Sc Ci]
-19.3 -22.4 76 -32 -32 опасность
обморожения
973.2 968.7
19 16.09 ЮВ 7 н/о н/о -18.9 -22.8 71 -30 -30 974.2 969.7
20 16.09 СВ 2 н/о н/о -18.0 -22.2 70 -24 -24 974.7 970.3
21 16.09 З 4 >70 км 1/1 800 м
[Sc]
-19.1 -22.8 72 -28 -28 975.0 970.5
22 16.09 З 1 н/о н/о -19.0 -22.8 72 -20 -20 974.9 970.4
23 16.09 С 2 н/о н/о -19.9 -23.5 73 -26 -26 974.6 970.1
00 17.09 С 2 >70 км 1/1 600 м
[Sc]
-19.9 -24.1 69 -26 -26 974.5 970.0 -20.1 -17.9
01 17.09 В 2 н/о н/о -19.6 -23.8 69 -24 -24 973.8 969.3
02 17.09 С 1 н/о н/о -20.1 -24.4 68 -23 -23 972.9 968.4
03 17.09 С 6 н/о н/о -19.3 -23.2 71 -30 -30 971.3 966.8
04 17.09 СВ 11 н/о н/о -18.0 -21.8 72 -32 -32 опасность
обморожения
969.2 964.8
05 17.09 СВ 13 н/о н/о -17.1 -20.4 75 -31 -31 опасность
обморожения
966.9 962.5
06 17.09 СВ 10 н/о н/о -16.3 -19.5 76 -29 -29 964.7 960.3
07 17.09 СВ 4 н/о н/о -16.0 -19.4 75 -24 -24 962.4 958.0
08 17.09 Ю 3 н/о н/о -17.0 -19.2 83 -23 -23 959.9 955.5
09 17.09 Ю 5 н/о н/о -18.6 -20.7 83 -28 -28 957.9 953.5
10 17.09 Ю 6 н/о н/о -18.7 -20.9 83 -29 -29 956.3 951.9
11 17.09 З 4 н/о н/о -18.5 -20.7 83 -27 -27 954.4 950.0
12 17.09 З 7 500 м снег ?/? -18.4 -20.5 83 -29 -29 952.2 947.8 -20.8 -15.7
13 17.09 ЮЗ 7 н/о н/о -18.1 -20.2 84 -29 -29 950.5 946.1
14 17.09 З 6 н/о н/о -17.8 -20.1 82 -28 -28 948.9 944.5
15 17.09 ЮЗ 6 5000 м слабый снег 10/10 360 м
[St]
-17.7 -19.9 83 -28 -28 948.1 943.7
16 17.09 ЮЗ 4 н/о н/о -17.4 -19.6 83 -26 -26 947.7 943.3
17 17.09 З 3 н/о н/о -17.2 -19.3 84 -24 -24 947.2 942.8
18 17.09 СВ 3 1000 м слабый снег {метель} 10/10 360 м
[St]
-16.5 -18.6 84 -23 -23 947.4 943.0
19 17.09 СВ 1 н/о н/о -16.5 -18.7 83 -19 -19 947.9 943.5
20 17.09 ЮЗ 1 н/о н/о -16.2 -18.3 84 -17 -17 948.3 943.9
21 17.09 З 4 3000 м слабый снег 10/10 360 м
[St]
-15.7 -17.9 83 -23 -23 948.9 944.5
22 17.09 З 3 н/о н/о -14.8 -17.1 83 -21 -21 949.8 945.4
23 17.09 В 12 н/о н/о -13.0 -16.1 77 -25 -25 950.0 945.7
00 18.09 В 12 30 км 10/10 900 м
[Sc]
-13.3 -16.7 76 -26 -26 951.2 946.8 -18.4 -12.8
01 18.09 В 11 н/о н/о -13.3 -17.2 72 -25 -25 952.5 948.1
02 18.09 В 10 н/о н/о -13.3 -17.8 69 -25 -25 954.0 949.6
03 18.09 В 9 н/о н/о -13.4 -18.2 67 -24 -24 955.2 950.8
05 18.09 В 9 н/о н/о -13.4 -19.7 59 -24 -24 957.6 953.2
06 18.09 В 5 н/о н/о -13.5 -19.4 61 -22 -22 959.4 955.0
08 18.09 Ю 6 н/о н/о -16.0 -18.7 80 -26 -26 962.4 958.0
07 18.09 Ю 6 н/о н/о -15.2 -18.0 79 -25 -25 960.8 956.4
09 18.09 ЮВ 5 н/о н/о -16.7 -19.4 80 -26 -26 963.8 959.4
10 18.09 ЮВ 7 н/о н/о -18.2 -20.9 79 -30 -30 964.8 960.4
11 18.09 ЮВ 7 н/о н/о -18.0 -20.9 78 -29 -29 965.6 961.2
12 18.09 ЮВ 8 30 км 10/8 600 м
[Sc Ac trans]
-17.7 -20.6 78 -29 -29 966.9 962.5 -18.6 -13.0
14 18.09 З 5 н/о н/о -18.0 -21.5 74 -27 -27 969.5 965.1
13 18.09 ЮВ 4 н/о н/о -17.7 -21.0 75 -26 -26 968.4 964.0
15 18.09 С 3 30 км 5/5 600 м
[Sc Ac trans]
-18.1 -22.8 67 -25 -23 970.5 966.1
16 18.09 СЗ 2 н/о н/о -17.4 -23.6 58 -23 -23 971.5 967.1
17 18.09 ЮВ 5 н/о н/о -17.2 -22.4 64 -26 -26 972.9 968.5
18 18.09 ЮВ 3 25 км слабый снег 8/8 480 м
[Sc Ac trans]
-17.3 -22.6 63 -24 -23 974.5 970.1
20 18.09 З 3 н/о н/о -17.7 -21.2 74 -24 -24 977.4 973.0
19 18.09 З 4 н/о н/о -17.6 -21.0 75 -26 -26 976.1 971.7
21 18.09 СЗ 1 >70 км 3/3 660 м
[Sc As trans]
-17.6 -22.0 68 -18 -18 978.3 973.9
22 18.09 СЗ 7 н/о н/о -19.1 -24.8 61 -31 -31 опасность
обморожения
978.8 974.3
23 18.09 СЗ 10 н/о н/о -19.7 -25.3 61 -33 -33 опасность
обморожения
979.1 974.6
00 19.09 С 11 70 км 4/4 600 м
[Sc]
-20.4 -24.6 69 -35 -35 опасность
обморожения
979.6 975.1 -20.4 -17.0
02 19.09 С 6 н/о н/о -19.9 -24.6 66 -30 -30 980.0 975.5
03 19.09 СВ 13 н/о н/о -18.6 -22.0 75 -33 -33 опасность
обморожения
978.8 974.4
04 19.09 СВ 12 н/о н/о -18.1 -21.1 77 -32 -32 опасность
обморожения
978.3 973.9
05 19.09 СВ 12 н/о н/о -17.4 -20.2 79 -31 -31 опасность
обморожения
977.5 973.1
06 19.09 СВ 11 н/о н/о -16.8 -20.3 74 -30 -30 976.3 971.9
07 19.09 СВ 13 н/о н/о -16.4 -19.6 76 -30 -30 975.2 970.8
08 19.09 СВ 10 н/о н/о -15.6 -18.3 80 -28 -28 974.3 969.9
09 19.09 СВ 11 н/о н/о -15.1 -17.3 83 -28 -28 973.5 969.1
11 19.09 СВ 14 н/о н/о -12.3 -14.0 87 -25 -25 971.3 967.0
12 19.09 штиль 0 50 км сильная метель {снег} ?/? -11.5 -13.2 87 -12 -12 971.2 966.9 -20.4 -11.5
13 19.09 СВ 15 н/о н/о -10.5 -12.4 86 -23 -23 971.2 966.9
14 19.09 СВ 14 н/о н/о -9.4 -11.6 84 -21 -21 972.5 968.2

 

Местоположение метеостанции Rothera (Антарктида): широта -67.56 долгота -68.13 высота над уровнем моря 16 м.

В архиве по умолчанию представлена погода в Rothera за последнюю неделю. Архивные данные за месяц целиком и за предыдущие месяцы, начиная с января 2011 года, Вы можете получить, выбрав интересующий диапазон дат из раскрывающегося списка и нажав кнопку "Ввод!".

Внимание! Время в таблицах - всемирное. Для получения местного времени необходимо прибавить поправку, которая в Rothera равна 0 ч.

Смотрите также архив погоды в соседних городах и на ближайших метеорологических станциях:

Погода в Base san Martin (Антарктида) (74 км)
Погода в Larsen Ice (Антарктида) (289 км)
Погода в Vernadsky (Антарктида) (309 км)
Погода в Palmer Station (Антарктида) (361 км)
Погода в Fossil Bluff (Антарктида) (419 км)
Погода в Butler Island (Антарктида) (598 км)
Погода в Base Marambio (Антарктида) (636 км)
Погода в Juan Carlos I (Антарктида) (653 км)
Погода в Bernardo o`Higgins (Антарктида) (667 км)
Погода в Base Arturo Prat (Антарктида) (687 км)

Пояснения к столбцам:

Ветер - указаны скорость ветра в м/с - средняя за 10 мин, порывы в срок и между сроками (в фигурных скобках) и направление, откуда дует ветер: С - северный, СВ - северо-восточный, В - восточный, ЮВ - юго-восточный, Ю - южный, ЮЗ - юго-западный, З - западный, СЗ - северо-западный.
Видимость - горизонтальная дальность видимости в метрах или километрах. При видимости от 1 до 10 км при отсутствии осадков обычно наблюдается дымка, при ухудшении видимости до 1 км и менее - туман. В сухую погоду видимость может ухудшаться дымом, пылью или мглою.
Явления - указаны атмосферные явления, наблюдавшиеся в срок или в последний час перед сроком; фигурными скобками обозначены явления, наблюдавшиеся между сроками (за 1-3 часа до срока); квадратными скобками обозначены град или гололедные отложения с указанием их диаметра в мм.
Облачность - указаны через наклонную черту общая и нижняя облачность в баллах и высота нижней границы облаков в метрах; квадратными скобками обозначены формы облаков: Ci - перистые, Cs - перисто-слоистые, Cc - перисто-кучевые, Ac - высококучевые, As - высокослоистые, Sc - слоисто-кучевые, Ns - слоисто-дождевые, Cu - кучевые, Cb - кучево-дождевые. Подробнее классификацию облаков см. в Атласе облаков (PDF).
T - Температура воздуха - температура, измеренная на высоте 2 м над землей.
Td - Температура точки росы - температура, при понижении до которой содержащийся в воздухе водяной пар достигнет насыщения.
f - Относительная влажность воздуха - влажноcть воздуха, измеренная на высоте 2 м над землей.
Te - Эффективная температура - температура, которую ощущает одетый по сезону человек в тени. Характеристика душности погоды. При расчете учитывается влияние влажности воздуха и скорости ветра на теплоощущения человека.
Tes - Эффективная температура на солнце - температура, которую ощущает человек, с поправкой на солнечный нагрев. Характеристика знойности погоды. Зависит от высоты солнца над горизонтом, облачности и скорости ветра. Ночью, в пасмурную погоду, а также при ветре 12 м/с и более поправка равна нулю.
P - Атмосферное давление - приведенное к уровню моря атмосферное давление.
Po - Атмосферное давление - измеренное на уровне метеостанции атмосферное давление.
Tmin - Минимальная температура - минимум температуры воздуха на высоте 2 м над землей.
Tmax - Максимальная температура - максимум температуры воздуха на высоте 2 м над землей.
R - Количество осадков - Количество выпавших осадков за период времени, мм. При наведении курсора мыши на число - период времени, за который выпало указанное количество осадков.
R24 - Количество осадков - Количество выпавших осадков за 24 часа, мм.
S - Снежный покров - Высота снежного покрова, см. При наведении курсора мыши на число - состояние снежного покрова и степень покрытия местности в баллах.